Location: Morgantown
(40.9734°N, 80.6323°W)
Time: 23:21:44
(UTC+00:00)

H-2A R/B - Pass Details

Date: 29 October 2020
Orbit: 733 x 837 km, 98.2° (Epoch: 03 December)

Event Time Altitude Azimuth Distance (km) Brightness Sun altitude
Rises 22:58:41 0° 120° (ESE) 3,362 4.9 -7.6°
Reaches altitude 10° 23:01:47 10° 101° (E) 2,443 4.0 -8.2°
Maximum altitude 23:05:13 17° 61° (ENE) 1,984 3.6 -8.8°
Drops below altitude 10° 23:08:39 10° 22° (NNE) 2,459 4.3 -9.5°
Sets 23:11:47 0° 4° (N) 3,395 5.2 -10.1°
